User: anonymous   Login
Location: Goheenville
(40.9070°N, 79.3720°W)
Time: 08:13:34
(UTC-04:00)
Language:

Meteor 2-10 Rocket - Orbit

View from above orbital plane
View from above orbital plane
View from above satellite
View from above satellite

Ground track
Ground track

The orbit data is extracted from the following two-line orbital elements,

1 14453U 83109B   14302.70447815  .00000170  00000-0  64684-4 0  2683
2 14453 081.1678 353.4767 0104137 325.3963 154.3750 14.24527574610634
Epoch (UTC): 29 October 2014 16:54:26
Eccentricity: 0.0104137
inclination: 81.1678°
perigee height: 735 km
apogee height: 885 km
right ascension of ascending node: 353.4767°
argument of perigee: 325.3963°
revolutions per day: 14.24527574
mean anomaly at epoch: 154.3750°
orbit number at epoch: 61063

The dashed part of the orbit path shows where the satellite is in the earth's shadow,  

DLR